Terminal Aerodrome Forecast
Issued by NWS Melbourne, FL

Home | Current Version | Previous Version | Text Only | Print | Product List | Glossary On
Versions: 1 2 3 4 5 6 7 8 9 10 11 12 13 14 15 16 17 18 19 20 21 22 23 24 25 26 27
000
FTUS42 KMLB 051132
TAFMCO
TAF
KMCO 051132Z 0512/0612 16010KT 4SM BR OVC003
     FM051400 18009KT P6SM SCT030
     FM051800 21012KT P6SM SCT035 BKN060
     FM060400 30006KT P6SM BKN035 OVC060
     FM061000 35005KT P6SM BKN020 OVC040=

USA.gov is the U.S. government's official web portal to all federal, state and local government web resources and services.